> Flugplatz > 
Stacks Image 3
Aktuelle METAR Daten (Memmingen, Friedrichshafen, Laupheim):
2017/12/17 03:20 EDJA 171520Z 27011KT 9999 FEW015 BKN055 M01/M03 Q1023
2017/12/17 03:20 EDNY 171520Z 26005KT 9999 SCT022 BKN049 OVC060 02/M02 Q1025
2017/12/17 02:20 ETHL 171420Z 27008KT 9999 SCT019 BKN044 M00/M04 Q1023 BLU
Sicherheits- und Servicehinweise:

Bitte achten Sie beim Anflug auf mögliche Fall­schirm­springer auf der Nordseite des Platzes, kontaktieren Sie zur Sicherheit den Flugleiter auf Leutkirch INFO 122,875.

Zollabfertigung:
für Ein- und Ausflug bei Voranmeldung mindestens 3 Stunden, nur Personenverkehr – keine Warenabfertigung.

Günstig Tanken:
AvGas 100LL · Jet A1l

Aktuelles:

Winterflugbetrieb:
vom 01.11.2017 bis 14.03.2018.
Täglich 10:00-17:00 (loc)
So+HOL 10:30-17:00 (loc)
Closed 25.12.17 + 01.01.18

Weitere Informationen finden Sie in unserem Newsbereich.

Nutzen Sie unsere Online-Anmeldung zur Zoll- und Passkontrolle.